Overview Statistics Trail Chart Weather Telemetry Raw packets
 

This is the latest recevied weather packets stored in our database for station/object EW1958. If no packets are shown the sender has not sent any weather packets the latest 10 day(s).

<< 97 98 99 100 101 102 103 >>
Time Temp. Humidity Pressure Rain* Wind** Luminosity Snow
1787952336 19.44° C 67% 1019.5 hPa 0 mm - - -
1787951725 20° C 68% 1019.6 hPa 0 mm - - -
1787951435 20° C 66% 1019.7 hPa 0 mm - - -
1787951124 20° C 67% 1019.8 hPa 0 mm - - -
1787950832 20.56° C 65% 1019.7 hPa 0 mm - - -
1787950522 20.56° C 65% 1019.9 hPa 0 mm - - -
1787950222 20.56° C 64% 1019.9 hPa 0 mm - - -
1787949922 21.11° C 64% 1020 hPa 0 mm - - -
1787949622 21.11° C 63% 1020 hPa 0 mm - - -
1787949331 21.11° C 62% 1020 hPa 0 mm - - -
1787949019 21.11° C 62% 1020 hPa 0 mm - - -
1787948871 20.56° C 65% 1020 hPa 0 mm - - -
1787948431 20.56° C 65% 1020.1 hPa 0 mm - - -
1787948110 20° C 66% 1020 hPa 0 mm - - -
1787947829 20° C 67% 1020.1 hPa 0 mm - - -
1787947512 19.44° C 68% 1020.1 hPa 0 mm - - -
1787947371 19.44° C 69% 1020.1 hPa 0 mm - - -
1787946930 19.44° C 70% 1020.2 hPa 0 mm - - -
1787946608 19.44° C 71% 1020.3 hPa 0 mm - - -
1787946330 19.44° C 72% 1020.3 hPa 0 mm - - -
1787946008 19.44° C 70% 1020.3 hPa 0 mm - - -
1787945708 19.44° C 69% 1020.4 hPa 0 mm - - -
1787945408 19.44° C 71% 1020.3 hPa 0 mm - - -
1787945110 18.89° C 71% 1020.3 hPa 0 mm - - -
1787944975 18.89° C 72% 1020.3 hPa 0 mm - - -

* Rain latest hour (hover to see other rain measurements)
** Current wind speed in m/s (hover to see current wind gust speed)